Weather History for Casper, WY

Change the Weather History Date:

Sunday, January 29, 2012

  Actual Average Record
Temperature  
Mean Temperature 34 °F 25 °F  
Max Temperature 40 °F 35 °F 53 °F (1971)
Min Temperature 27 °F 14 °F -28 °F (1980)
Degree Days  
Heating Degree Days 31 40  
Month to date heating degree days 1079 1165  
Since 1 July heating degree days 3979 4294  
Cooling Degree Days 0 0  
Month to date cooling degree days 0 0  
Year to date cooling degree days 0 0  
Moisture  
Dew Point 15 °F    
Average Humidity 45    
Maximum Humidity 50    
Minimum Humidity 40    
Precipitation  
Precipitation 0.00 in 0.02 in 0.18 in (1994)
Month to date precipitation 0.67 0.48  
Year to date precipitation 0.67 0.48  
Snow  
Snow 0.00 in 0.30 in - ()
Month to date snowfall 9.1 8.5  
Since 1 July snowfall 35.8 39.0  
Snow Depth 0.00 in    
Sea Level Pressure  
Sea Level Pressure 30.11 in    
Wind  
Wind Speed 26 mph (SW)    
Max Wind Speed 35 mph    
Max Gust Speed 45 mph    
Visibility 10 miles    
Events      
T = Trace of Precipitation, MM = Missing Value Source: NWS Daily Summary

Daily Weather History Graph

Daily Weather History Graph

Search for Another Location

Airport:

Trip Planner

Search our weather history database for the weather conditions in past years. The results will help you decide how hot, cold, wet, or windy it might be!

Date:

Astronomy

Jan. 29, 2012 Rise Set
Actual Time 7:24 AM MST 5:14 PM MST
Civil Twilight 6:53 AM MST 5:44 PM MST
Nautical Twilight 6:19 AM MST 6:18 PM MST
Astronomical Twilight 5:46 AM MST 6:52 PM MST
Moon 10:05 AM MST (1/29) No Moon Set
Length of Visible Light 10h 50m
Length of Day
9h 50m
Waxing Crescent, 37% of the Moon is Illuminated
Jan 29
Waxing Crescent
Jan 30
First Quarter
Feb 7
Full
Feb 14
Last Quarter
Feb 21
New

Hourly Weather History & Observations

Time (MST) Temp. Windchill Dew Point Humidity Pressure Visibility Wind Dir Wind Speed Gust Speed Precip Events Conditions
12:53 AM 28.0 °F 13.3 °F 10.0 °F 47% 30.20 in 10.0 mi SW 25.3 mph 31.1 mph N/A   Scattered Clouds
1:53 AM 27.0 °F 13.9 °F 10.0 °F 49% 30.22 in 10.0 mi SW 18.4 mph 24.2 mph N/A   Scattered Clouds
2:53 AM 28.9 °F 14.5 °F 10.0 °F 45% 30.20 in 10.0 mi SW 25.3 mph 33.4 mph N/A   Scattered Clouds
3:53 AM 33.1 °F 18.2 °F 12.0 °F 42% 30.19 in 10.0 mi WSW 34.5 mph 44.9 mph N/A   Clear
4:53 AM 30.0 °F 15.2 °F 10.9 °F 45% 30.20 in 10.0 mi SW 28.8 mph 35.7 mph N/A   Overcast
5:53 AM 30.0 °F 15.2 °F 12.0 °F 47% 30.20 in 10.0 mi SW 28.8 mph 34.5 mph N/A   Overcast
6:53 AM 30.9 °F 17.8 °F 12.9 °F 47% 30.22 in 10.0 mi SW 23.0 mph - N/A   Mostly Cloudy
7:53 AM 30.9 °F 17.8 °F 12.9 °F 47% 30.24 in 10.0 mi SW 23.0 mph 32.2 mph N/A   Mostly Cloudy
8:53 AM 33.1 °F 20.3 °F 12.9 °F 43% 30.22 in 10.0 mi SSW 24.2 mph 34.5 mph N/A   Clear
9:53 AM 33.1 °F 19.1 °F 12.9 °F 43% 30.19 in 10.0 mi SSW 29.9 mph 39.1 mph N/A   Clear
10:53 AM 34.0 °F 21.0 °F 12.9 °F 42% 30.19 in 10.0 mi SW 26.5 mph 33.4 mph N/A   Mostly Cloudy
11:53 AM 35.6 °F 24.0 °F 15.8 °F 44% 30.09 in 10.0 mi SW 23.0 mph 32.2 mph N/A   Mostly Cloudy
12:53 PM 35.1 °F 22.5 °F 14.0 °F 42% 30.14 in 10.0 mi SW 26.5 mph 36.8 mph N/A   Scattered Clouds
1:53 PM 37.0 °F 25.1 °F 16.0 °F 42% 30.10 in 10.0 mi SW 26.5 mph 38.0 mph N/A   Clear
2:53 PM 37.9 °F 27.6 °F 17.1 °F 43% 30.07 in 10.0 mi SW 20.7 mph 31.1 mph N/A   Clear
3:53 PM 39.9 °F 28.0 °F 18.0 °F 41% 30.00 in 10.0 mi SSW 32.2 mph 39.1 mph N/A   Clear
4:53 PM 39.0 °F 28.0 °F 19.0 °F 45% 30.01 in 10.0 mi SSW 25.3 mph - N/A   Clear
5:53 PM 37.9 °F 27.3 °F 19.0 °F 47% 30.04 in 10.0 mi SSW 21.9 mph - N/A   Clear
6:53 PM 37.9 °F 26.1 °F 18.0 °F 45% 30.01 in 10.0 mi SSW 27.6 mph 35.7 mph N/A   Clear
7:53 PM 37.9 °F 26.8 °F 18.0 °F 45% 30.00 in 10.0 mi SSW 24.2 mph 33.4 mph N/A   Clear
8:52 PM 26.6 °F 21.2 °F 10.4 °F 51% 30.11 in 10.0 mi SE 4.6 mph - N/A   Clear
8:53 PM 37.0 °F - 18.0 °F 46% 29.96 in 10.0 mi North - - N/A   Clear
9:53 PM 37.0 °F - 18.0 °F 46% 29.98 in 10.0 mi North - - N/A   Clear
10:53 PM 36.0 °F - 18.0 °F 48% 29.98 in 10.0 mi North - - N/A   Clear
11:53 PM 35.1 °F - 17.1 °F 48% 29.98 in 10.0 mi North - - N/A   Clear